Voltar ao catálogo

NOAA 16 DEB

AtivoPO
NORAD 41227·DEBRIS·🇺🇸 United States

Lançado Sep 21, 2000 de Vandenberg Space Force Base

Loading…

Próximas Passagens (próximas 24 horas)

TLE

AtualizadoSource: Space-Track

Época: Sep 13, 2026, 04:49 UTC

1 41227U 00055EG  26256.20079554  .00005463  00000-0  11919-2 0  9990
2 41227  99.0379 162.3937 0020098 196.2216 163.8339 14.58197695560416

Acompanhe NOAA 16 DEB em tempo real com AllMySat

Download on the App Store